RYR70TE GCRR-LEAL

Flight info

Callsign RYR70TE
Flight time N/A
Altitude 36000
Route KORAL UG5 SONSO DCT NIRAL UN871 OSDAM UM985 BARPA DCT XAVIR DCT PIMOS M445 ETURA T252 XEBAR M985 ASTRO
Aircraft B738/M-SDE2E3FGHIRWXY/LB1

Departure

Time 2026-04-30 11:47
Airport César Manrique-Lanzarote Airport (GCRR)

Arrival

Time N/A
Airport Alicante-Elche Miguel Hernández Airport (LEAL)
Time Latitude Longitude Altitude Speed Heading
2026-04-30 11:40 28.94856 -13.60725 46 ft 0 kts 26°
2026-04-30 11:42 28.94867 -13.60719 47 ft 4 kts 26°
2026-04-30 11:42 28.94898 -13.60692 48 ft 8 kts 53°
2026-04-30 11:42 28.94888 -13.60624 48 ft 11 kts 115°
2026-04-30 11:42 28.94834 -13.60570 49 ft 12 kts 193°
2026-04-30 11:43 28.94761 -13.60607 49 ft 11 kts 205°
2026-04-30 11:43 28.94691 -13.60646 49 ft 11 kts 206°
2026-04-30 11:43 28.94607 -13.60694 43 ft 16 kts 206°
2026-04-30 11:43 28.94491 -13.60761 35 ft 21 kts 206°
2026-04-30 11:44 28.94356 -13.60838 29 ft 20 kts 206°
2026-04-30 11:44 28.94235 -13.60909 27 ft 19 kts 207°
2026-04-30 11:44 28.94117 -13.60977 27 ft 19 kts 207°
2026-04-30 11:44 28.94004 -13.61044 26 ft 18 kts 207°
2026-04-30 11:45 28.93895 -13.61106 26 ft 17 kts 206°
2026-04-30 11:45 28.93793 -13.61165 23 ft 16 kts 207°
2026-04-30 11:45 28.93701 -13.61217 23 ft 14 kts 198°
2026-04-30 11:45 28.93630 -13.61157 23 ft 14 kts 119°
2026-04-30 11:46 28.93625 -13.61061 23 ft 13 kts 46°
2026-04-30 11:46 28.93708 -13.61007 26 ft 20 kts 27°
2026-04-30 11:46 28.94046 -13.60812 27 ft 90 kts 27°
2026-04-30 11:46 28.94798 -13.60380 43 ft 150 kts 27°
2026-04-30 11:47 28.95858 -13.59786 314 ft 178 kts 27°
2026-04-30 11:47 28.96963 -13.59175 1169 ft 179 kts 29°
2026-04-30 11:47 28.97987 -13.58259 1719 ft 200 kts 41°
2026-04-30 11:47 28.99121 -13.57168 2010 ft 225 kts 38°
2026-04-30 11:48 29.00375 -13.56048 2594 ft 233 kts 38°
2026-04-30 11:48 29.01508 -13.54703 3172 ft 238 kts 52°
2026-04-30 11:48 29.02511 -13.53188 3789 ft 241 kts 51°
2026-04-30 11:48 29.03552 -13.51654 4206 ft 246 kts 50°
2026-04-30 11:49 29.04625 -13.50107 4799 ft 250 kts 50°
2026-04-30 11:49 29.05722 -13.48548 5353 ft 254 kts 48°
2026-04-30 11:49 29.06834 -13.46977 5919 ft 256 kts 48°
2026-04-30 11:49 29.07965 -13.45388 6470 ft 259 kts 48°
2026-04-30 11:50 29.09109 -13.43789 7010 ft 261 kts 46°
2026-04-30 11:50 29.10556 -13.42570 7490 ft 259 kts 22°
2026-04-30 11:50 29.12200 -13.41703 8023 ft 262 kts 21°
2026-04-30 11:50 29.13875 -13.40824 8489 ft 271 kts 21°
2026-04-30 11:51 29.15646 -13.39887 8790 ft 288 kts 22°
2026-04-30 11:51 29.17488 -13.38901 9477 ft 294 kts 22°
2026-04-30 11:51 29.19340 -13.37900 10303 ft 296 kts 22°
2026-04-30 11:51 29.21249 -13.36866 10667 ft 315 kts 22°
2026-04-30 11:52 29.23306 -13.35752 10869 ft 337 kts 22°
2026-04-30 11:52 29.25459 -13.34581 11413 ft 346 kts 23°
2026-04-30 11:52 29.27510 -13.33096 11957 ft 355 kts 42°
2026-04-30 11:52 29.29041 -13.30837 12558 ft 362 kts 53°
2026-04-30 11:53 29.29976 -13.29261 13086 ft 362 kts 54°
2026-04-30 11:53 29.31397 -13.26863 13851 ft 364 kts 53°
2026-04-30 11:53 29.32838 -13.24458 14478 ft 368 kts 53°
2026-04-30 11:53 29.34306 -13.22038 15091 ft 372 kts 52°
2026-04-30 11:54 29.35797 -13.19593 15704 ft 376 kts 52°
2026-04-30 11:54 29.37301 -13.17126 16333 ft 379 kts 52°
2026-04-30 11:54 29.38817 -13.14639 16952 ft 383 kts 51°
2026-04-30 11:54 29.40348 -13.12125 17576 ft 386 kts 51°
2026-04-30 11:55 29.41887 -13.09593 18244 ft 388 kts 51°
2026-04-30 11:55 29.43435 -13.07045 18799 ft 391 kts 51°
2026-04-30 11:55 29.44997 -13.04473 19317 ft 395 kts 50°
2026-04-30 11:55 29.46575 -13.01875 19809 ft 399 kts 50°
2026-04-30 11:56 29.48168 -12.99247 20332 ft 403 kts 50°
2026-04-30 11:56 29.49773 -12.96595 20830 ft 407 kts 50°
2026-04-30 11:56 29.50964 -12.94626 21198 ft 409 kts 50°
2026-04-30 11:56 29.52592 -12.91930 21697 ft 413 kts 50°
2026-04-30 11:57 29.54232 -12.89212 22185 ft 416 kts 50°
2026-04-30 11:57 29.55886 -12.86468 22654 ft 420 kts 50°
2026-04-30 11:57 29.57553 -12.83703 23139 ft 423 kts 50°
2026-04-30 11:57 29.59235 -12.80909 23605 ft 426 kts 50°
2026-04-30 11:58 29.60928 -12.78096 24004 ft 430 kts 50°
2026-04-30 11:58 29.62630 -12.75264 24429 ft 432 kts 49°
2026-04-30 11:58 29.64343 -12.72412 24859 ft 434 kts 49°
2026-04-30 11:58 29.66061 -12.69550 25274 ft 436 kts 49°
2026-04-30 11:59 29.67784 -12.66678 25685 ft 438 kts 49°
2026-04-30 11:59 29.69515 -12.63790 26079 ft 440 kts 48°
2026-04-30 11:59 29.71254 -12.60889 26461 ft 442 kts 48°
2026-04-30 11:59 29.73004 -12.57968 26845 ft 444 kts 48°
2026-04-30 12:00 29.74755 -12.55033 27234 ft 446 kts 48°
2026-04-30 12:00 29.76509 -12.52079 27597 ft 448 kts 48°
2026-04-30 12:00 29.78267 -12.49111 27961 ft 450 kts 48°
2026-04-30 12:00 29.80035 -12.46123 28320 ft 452 kts 47°
2026-04-30 12:01 29.81809 -12.43123 28678 ft 454 kts 47°
2026-04-30 12:01 29.83594 -12.40105 29010 ft 457 kts 47°
2026-04-30 12:01 29.84918 -12.37863 29346 ft 456 kts 47°
2026-04-30 12:01 29.86698 -12.34844 29788 ft 456 kts 47°
2026-04-30 12:02 29.88460 -12.31858 30088 ft 458 kts 47°
2026-04-30 12:02 29.90258 -12.28812 30332 ft 461 kts 47°
2026-04-30 12:02 29.92088 -12.25709 30586 ft 463 kts 47°
2026-04-30 12:02 29.93872 -12.22677 30894 ft 463 kts 47°
2026-04-30 12:03 29.95675 -12.19608 31271 ft 461 kts 47°
2026-04-30 12:03 29.99252 -12.13517 32057 ft 457 kts 46°
2026-04-30 12:03 30.01062 -12.10512 32390 ft 452 kts 43°
2026-04-30 12:04 30.03126 -12.07851 32706 ft 441 kts 35°
2026-04-30 12:04 30.05321 -12.05398 33081 ft 438 kts 34°
2026-04-30 12:04 30.07522 -12.02984 33529 ft 434 kts 34°
2026-04-30 12:04 30.09688 -12.00610 34147 ft 426 kts 33°
2026-04-30 12:05 30.11825 -11.98258 34448 ft 425 kts 34°
2026-04-30 12:05 30.13971 -11.95890 34588 ft 428 kts 34°
2026-04-30 12:05 30.16126 -11.93501 34717 ft 431 kts 34°
2026-04-30 12:05 30.18292 -11.91088 34875 ft 433 kts 34°
2026-04-30 12:06 30.20459 -11.88664 35075 ft 434 kts 34°
2026-04-30 12:06 30.22621 -11.86236 35287 ft 434 kts 35°
2026-04-30 12:06 30.24217 -11.84443 35427 ft 435 kts 35°
2026-04-30 12:06 30.26388 -11.82001 35619 ft 436 kts 35°
2026-04-30 12:07 30.28560 -11.79557 35813 ft 436 kts 35°
2026-04-30 12:07 30.30737 -11.77106 36009 ft 436 kts 35°
2026-04-30 12:07 30.32915 -11.74653 36116 ft 439 kts 35°
2026-04-30 12:08 30.37306 -11.69706 36124 ft 440 kts 35°
2026-04-30 12:08 30.41659 -11.64784 36115 ft 436 kts 35°
2026-04-30 12:09 30.45986 -11.59891 36124 ft 433 kts 36°
2026-04-30 12:09 30.50291 -11.55019 36116 ft 432 kts 36°
2026-04-30 12:10 30.54589 -11.50151 36122 ft 432 kts 36°
2026-04-30 12:10 30.58885 -11.45280 36122 ft 432 kts 36°
2026-04-30 12:11 30.63193 -11.40387 36116 ft 434 kts 36°
2026-04-30 12:11 30.66949 -11.36117 36121 ft 436 kts 36°
2026-04-30 12:12 30.71288 -11.31175 36147 ft 438 kts 36°
2026-04-30 12:12 30.75647 -11.26204 36144 ft 440 kts 36°
2026-04-30 12:13 30.80026 -11.21203 36122 ft 442 kts 36°
2026-04-30 12:13 30.84415 -11.16183 36111 ft 443 kts 36°
2026-04-30 12:14 30.88806 -11.11152 36113 ft 443 kts 36°
2026-04-30 12:14 30.93189 -11.06125 36112 ft 442 kts 36°
2026-04-30 12:15 30.97533 -11.01135 36107 ft 441 kts 36°
2026-04-30 12:15 31.01890 -10.96125 36110 ft 440 kts 36°
2026-04-30 12:16 31.06239 -10.91119 36131 ft 439 kts 37°
2026-04-30 12:16 31.10006 -10.86779 36117 ft 440 kts 38°
2026-04-30 12:17 31.16560 -10.79213 36115 ft 443 kts 38°
2026-04-30 12:17 31.20951 -10.74135 36107 ft 446 kts 38°
2026-04-30 12:18 31.25365 -10.69023 36112 ft 448 kts 38°
2026-04-30 12:18 31.29794 -10.63885 36109 ft 449 kts 38°
2026-04-30 12:19 31.34232 -10.58730 36107 ft 450 kts 38°
2026-04-30 12:19 31.38681 -10.53556 36107 ft 452 kts 39°
2026-04-30 12:20 31.43153 -10.48348 36112 ft 455 kts 39°
2026-04-30 12:20 31.47643 -10.43110 36112 ft 457 kts 40°
2026-04-30 12:21 31.52157 -10.37837 36105 ft 459 kts 40°
2026-04-30 12:21 31.56092 -10.33234 36105 ft 461 kts 40°
2026-04-30 12:22 31.60627 -10.27921 36103 ft 461 kts 40°
2026-04-30 12:22 31.65167 -10.22595 36096 ft 461 kts 40°
2026-04-30 12:23 31.69700 -10.17269 36090 ft 461 kts 41°
2026-04-30 12:23 31.74229 -10.11941 36106 ft 461 kts 41°
2026-04-30 12:24 31.78761 -10.06602 36104 ft 461 kts 41°
2026-04-30 12:24 31.83295 -10.01252 36104 ft 462 kts 41°
2026-04-30 12:25 31.87802 -9.95926 36090 ft 463 kts 41°
2026-04-30 12:25 31.92369 -9.90521 36097 ft 463 kts 41°
2026-04-30 12:26 31.96883 -9.85171 36110 ft 463 kts 42°
2026-04-30 12:26 32.00825 -9.80495 36078 ft 465 kts 43°
2026-04-30 12:27 32.05381 -9.75079 36089 ft 465 kts 43°
2026-04-30 12:27 32.09940 -9.69652 36095 ft 466 kts 43°
2026-04-30 12:28 32.14507 -9.64208 36087 ft 467 kts 43°
2026-04-30 12:28 32.19081 -9.58748 36091 ft 468 kts 43°
2026-04-30 12:29 32.23657 -9.53276 36078 ft 468 kts 43°
2026-04-30 12:29 32.28235 -9.47794 36088 ft 469 kts 43°
2026-04-30 12:30 32.32813 -9.42303 36078 ft 469 kts 44°
2026-04-30 12:30 32.37387 -9.36809 36085 ft 469 kts 44°
2026-04-30 12:31 32.41960 -9.31306 36083 ft 468 kts 44°
2026-04-30 12:31 32.45879 -9.26585 36080 ft 468 kts 44°
2026-04-30 12:32 32.50437 -9.21086 36090 ft 468 kts 44°
2026-04-30 12:32 32.54992 -9.15583 36089 ft 467 kts 44°
2026-04-30 12:33 32.59544 -9.10074 36093 ft 468 kts 44°
2026-04-30 12:33 32.64091 -9.04563 36088 ft 467 kts 44°
2026-04-30 12:34 32.68636 -8.99045 36089 ft 467 kts 44°
2026-04-30 12:34 32.73174 -8.93527 36095 ft 467 kts 44°
2026-04-30 12:35 32.77710 -8.88004 36092 ft 467 kts 44°
2026-04-30 12:35 32.82243 -8.82476 36091 ft 467 kts 44°
2026-04-30 12:36 32.86742 -8.76980 36099 ft 467 kts 45°
2026-04-30 12:36 32.90648 -8.72202 36092 ft 467 kts 45°
2026-04-30 12:37 32.95175 -8.66656 36086 ft 467 kts 45°
2026-04-30 12:37 32.99703 -8.61100 36095 ft 467 kts 45°
2026-04-30 12:38 33.04234 -8.55530 36088 ft 468 kts 45°
2026-04-30 12:38 33.08763 -8.49956 36090 ft 468 kts 45°
2026-04-30 12:39 33.13296 -8.44366 36083 ft 469 kts 45°
2026-04-30 12:39 33.17828 -8.38772 36079 ft 469 kts 45°
2026-04-30 12:40 33.22015 -8.34616 36074 ft 466 kts 31°
2026-04-30 12:40 33.27521 -8.30521 36072 ft 466 kts 30°
2026-04-30 12:41 33.33019 -8.26483 36080 ft 467 kts 30°
2026-04-30 12:41 33.37836 -8.22893 36074 ft 468 kts 31°
2026-04-30 12:42 33.43313 -8.18765 36085 ft 469 kts 31°
2026-04-30 12:42 33.48829 -8.14588 36068 ft 469 kts 31°
2026-04-30 12:43 33.54346 -8.10403 36078 ft 469 kts 31°
2026-04-30 12:43 33.59867 -8.06211 36072 ft 470 kts 31°
2026-04-30 12:44 33.65385 -8.02016 36073 ft 469 kts 31°
2026-04-30 12:44 33.70898 -7.97819 36079 ft 469 kts 31°
2026-04-30 12:45 33.76405 -7.93619 36085 ft 469 kts 31°
2026-04-30 12:45 33.81909 -7.89415 36082 ft 469 kts 31°
2026-04-30 12:46 33.87407 -7.85209 36093 ft 468 kts 31°
2026-04-30 12:46 33.92114 -7.81604 36091 ft 468 kts 31°
2026-04-30 12:47 33.97601 -7.77394 36108 ft 468 kts 31°
2026-04-30 12:47 34.03091 -7.73176 36096 ft 468 kts 31°
2026-04-30 12:48 34.08577 -7.68954 36101 ft 468 kts 31°
2026-04-30 12:48 34.14059 -7.64729 36101 ft 468 kts 31°
2026-04-30 12:49 34.19540 -7.60498 36105 ft 468 kts 31°
2026-04-30 12:49 34.25021 -7.56261 36101 ft 468 kts 32°
2026-04-30 12:50 34.30510 -7.52010 36108 ft 469 kts 32°
2026-04-30 12:50 34.36013 -7.47742 36105 ft 470 kts 32°
2026-04-30 12:51 34.41521 -7.43463 36104 ft 471 kts 32°
2026-04-30 12:51 34.46250 -7.39784 36105 ft 472 kts 32°
2026-04-30 12:52 34.51779 -7.35476 36109 ft 473 kts 32°
2026-04-30 12:52 34.57275 -7.31187 36104 ft 473 kts 32°
2026-04-30 12:53 34.62810 -7.26861 36101 ft 473 kts 32°
2026-04-30 12:53 34.68341 -7.22531 36104 ft 473 kts 32°
2026-04-30 12:54 34.73873 -7.18193 36094 ft 473 kts 32°
2026-04-30 12:54 34.79398 -7.13854 36116 ft 473 kts 32°
2026-04-30 12:55 34.84920 -7.09509 36107 ft 473 kts 32°
2026-04-30 12:55 34.90440 -7.05159 36102 ft 473 kts 32°
2026-04-30 12:56 34.95962 -7.00801 36102 ft 473 kts 32°
2026-04-30 12:56 35.00738 -6.97026 36100 ft 472 kts 32°
2026-04-30 12:57 35.06252 -6.92660 36111 ft 472 kts 32°
2026-04-30 12:57 35.11764 -6.88289 36099 ft 472 kts 32°
2026-04-30 12:58 35.17271 -6.83915 36084 ft 472 kts 32°
2026-04-30 12:58 35.22774 -6.79536 36096 ft 472 kts 33°
2026-04-30 12:59 35.28239 -6.75181 36100 ft 472 kts 33°
2026-04-30 12:59 35.33548 -6.70474 36097 ft 472 kts 45°
2026-04-30 13:00 35.37581 -6.64184 36099 ft 469 kts 62°
2026-04-30 13:00 35.40774 -6.57214 36099 ft 470 kts 62°
2026-04-30 13:01 35.44034 -6.50260 36092 ft 471 kts 62°
2026-04-30 13:01 35.46979 -6.44276 36071 ft 472 kts 60°
2026-04-30 13:02 35.50475 -6.37447 36084 ft 473 kts 59°
2026-04-30 13:02 35.53968 -6.30600 36089 ft 474 kts 60°
2026-04-30 13:03 35.57448 -6.23714 36077 ft 475 kts 60°
2026-04-30 13:03 35.60929 -6.16795 36094 ft 476 kts 60°
2026-04-30 13:04 35.64409 -6.09866 36078 ft 476 kts 60°
2026-04-30 13:04 35.67881 -6.02941 36069 ft 475 kts 60°
2026-04-30 13:05 35.71346 -5.96017 36076 ft 475 kts 60°
2026-04-30 13:06 35.76119 -5.85364 36086 ft 473 kts 68°
2026-04-30 13:06 35.78504 -5.79040 36079 ft 473 kts 68°
2026-04-30 13:07 35.81332 -5.71709 36074 ft 474 kts 66°
2026-04-30 13:07 35.84214 -5.64394 36064 ft 475 kts 67°
2026-04-30 13:08 35.87171 -5.57102 36080 ft 477 kts 66°
2026-04-30 13:08 35.90150 -5.49778 36081 ft 479 kts 66°
2026-04-30 13:09 35.93128 -5.42407 36081 ft 481 kts 66°
2026-04-30 13:09 35.96107 -5.35003 36075 ft 483 kts 66°
2026-04-30 13:10 35.99092 -5.27567 36066 ft 484 kts 67°
2026-04-30 13:10 36.02114 -5.20123 36072 ft 486 kts 66°
2026-04-30 13:11 36.05229 -5.12723 36085 ft 486 kts 65°
2026-04-30 13:11 36.07934 -5.06288 36073 ft 487 kts 66°
2026-04-30 13:12 36.11034 -4.98852 36076 ft 486 kts 66°
2026-04-30 13:12 36.14142 -4.91429 36069 ft 486 kts 63°
2026-04-30 13:13 36.18283 -4.84790 36080 ft 490 kts 47°
2026-04-30 13:13 36.20659 -4.81771 36070 ft 490 kts 46°
2026-04-30 13:14 36.27827 -4.72750 36063 ft 489 kts 47°
2026-04-30 13:14 36.34913 -4.63636 36058 ft 489 kts 47°
2026-04-30 13:15 36.41931 -4.54525 36058 ft 489 kts 47°
2026-04-30 13:16 36.46626 -4.48418 36053 ft 489 kts 47°
2026-04-30 13:16 36.50726 -4.43080 36051 ft 489 kts 47°
2026-04-30 13:17 36.57770 -4.33888 36046 ft 490 kts 47°
2026-04-30 13:18 36.64816 -4.24668 36044 ft 490 kts 47°
2026-04-30 13:18 36.71864 -4.15418 36043 ft 491 kts 47°
2026-04-30 13:19 36.76562 -4.09239 36043 ft 491 kts 47°
2026-04-30 13:19 36.81252 -4.03057 36051 ft 490 kts 48°
2026-04-30 13:20 36.85937 -3.96871 36048 ft 489 kts 48°
2026-04-30 13:20 36.90607 -3.90692 36045 ft 489 kts 48°
2026-04-30 13:21 36.95267 -3.84515 36065 ft 487 kts 48°
2026-04-30 13:22 37.01633 -3.76057 36035 ft 485 kts 48°
2026-04-30 13:22 37.08541 -3.66852 36081 ft 481 kts 48°
2026-04-30 13:23 37.15474 -3.57759 36077 ft 481 kts 47°
2026-04-30 13:24 37.24744 -3.45800 36071 ft 481 kts 47°
2026-04-30 13:25 37.33269 -3.34730 36063 ft 482 kts 47°
2026-04-30 13:26 37.45079 -3.19334 36067 ft 483 kts 47°
2026-04-30 13:28 37.55976 -3.05061 36010 ft 482 kts 47°
2026-04-30 13:28 37.62932 -2.95936 36033 ft 480 kts 47°
2026-04-30 13:29 37.72178 -2.83784 36036 ft 479 kts 47°
2026-04-30 13:31 37.83632 -2.68622 36058 ft 474 kts 47°
2026-04-30 13:31 37.89708 -2.60536 35030 ft 453 kts 47°
2026-04-30 13:32 37.94041 -2.54757 33729 ft 450 kts 47°
2026-04-30 13:32 37.98282 -2.49094 32712 ft 437 kts 47°
2026-04-30 13:33 38.02445 -2.43535 31478 ft 432 kts 47°
2026-04-30 13:33 38.06557 -2.38035 30350 ft 427 kts 47°
2026-04-30 13:34 38.08589 -2.35313 29754 ft 423 kts 47°
2026-04-30 13:34 38.14552 -2.27310 27982 ft 410 kts 47°
2026-04-30 13:35 38.16497 -2.24696 27454 ft 405 kts 47°
2026-04-30 13:35 38.20065 -2.19294 26386 ft 395 kts 63°
2026-04-30 13:36 38.21561 -2.12755 25342 ft 381 kts 85°
2026-04-30 13:36 38.21908 -2.09426 24835 ft 378 kts 85°
2026-04-30 13:36 38.22489 -2.03674 23969 ft 373 kts 85°
2026-04-30 13:37 38.22822 -2.00420 23447 ft 370 kts 85°
2026-04-30 13:37 38.23494 -1.93992 22338 ft 363 kts 85°
2026-04-30 13:38 38.24157 -1.87717 21255 ft 359 kts 84°
2026-04-30 13:38 38.24489 -1.84579 20712 ft 357 kts 84°
2026-04-30 13:38 38.25143 -1.78384 19735 ft 350 kts 84°
2026-04-30 13:39 38.25785 -1.72281 18777 ft 345 kts 84°
2026-04-30 13:39 38.26413 -1.66275 17771 ft 340 kts 84°
2026-04-30 13:40 38.26723 -1.63305 17214 ft 338 kts 84°
2026-04-30 13:40 38.27031 -1.60340 16591 ft 339 kts 83°
2026-04-30 13:40 38.27340 -1.57361 16063 ft 337 kts 83°
2026-04-30 13:40 38.27645 -1.54417 15586 ft 334 kts 83°
2026-04-30 13:41 38.27946 -1.51504 15095 ft 331 kts 83°
2026-04-30 13:41 38.28245 -1.48599 14573 ft 330 kts 83°
2026-04-30 13:41 38.28463 -1.46476 14167 ft 330 kts 83°
2026-04-30 13:41 38.28763 -1.43548 13456 ft 335 kts 83°
2026-04-30 13:42 38.29061 -1.40635 13111 ft 326 kts 83°
2026-04-30 13:42 38.29349 -1.37815 12736 ft 319 kts 83°
2026-04-30 13:42 38.29931 -1.32074 11151 ft 331 kts 83°
2026-04-30 13:43 38.30225 -1.29177 10613 ft 328 kts 83°
2026-04-30 13:43 38.30514 -1.26318 10118 ft 323 kts 83°
2026-04-30 13:43 38.30798 -1.23496 9548 ft 320 kts 83°
2026-04-30 13:43 38.31080 -1.20690 8959 ft 318 kts 83°
2026-04-30 13:44 38.31358 -1.17916 8446 ft 313 kts 83°
2026-04-30 13:44 38.31632 -1.15177 7901 ft 311 kts 83°
2026-04-30 13:44 38.31901 -1.12483 7264 ft 312 kts 83°
2026-04-30 13:44 38.32177 -1.09713 6757 ft 309 kts 83°
2026-04-30 13:45 38.32702 -1.04420 5985 ft 294 kts 83°
2026-04-30 13:45 38.32952 -1.01889 5784 ft 281 kts 83°
2026-04-30 13:45 38.33189 -0.99487 5658 ft 266 kts 83°
2026-04-30 13:46 38.33415 -0.97194 5540 ft 257 kts 83°
2026-04-30 13:46 38.33579 -0.94962 5426 ft 251 kts 93°
2026-04-30 13:46 38.33351 -0.92767 5349 ft 250 kts 99°
2026-04-30 13:46 38.33080 -0.90536 5171 ft 261 kts 99°
2026-04-30 13:47 38.32774 -0.88218 4845 ft 267 kts 101°
2026-04-30 13:47 38.32447 -0.85881 4496 ft 269 kts 101°
2026-04-30 13:47 38.32112 -0.83527 4135 ft 269 kts 101°
2026-04-30 13:47 38.31782 -0.81209 3788 ft 263 kts 102°
2026-04-30 13:48 38.31461 -0.78939 3451 ft 258 kts 102°
2026-04-30 13:48 38.31117 -0.76720 4863 ft 262 kts 101°
2026-04-30 13:48 38.30809 -0.74393 4140 ft 266 kts 98°
2026-04-30 13:48 38.30495 -0.72080 3412 ft 263 kts 99°
2026-04-30 13:49 38.30175 -0.69804 2676 ft 259 kts 99°
2026-04-30 13:49 38.29859 -0.67566 1950 ft 255 kts 100°
2026-04-30 13:49 38.29553 -0.65379 1421 ft 245 kts 101°
2026-04-30 13:49 38.29267 -0.63329 1112 ft 224 kts 101°
2026-04-30 13:50 38.29006 -0.61465 809 ft 205 kts 101°
2026-04-30 13:50 38.29746 -0.58746 601 ft 162 kts 15°
2026-04-30 13:50 38.30744 -0.59060 1059 ft 156 kts 315°